Simultaneous Nadir Overpasses (SNOs) Predictions

Prediction of SNOs between GOES-17 and TERRA Satellite Orbit:

Table of predicted SNOs for the next 14.0 days since TLE Epoch: 10/26/2024
Index Date Time (GOES-17) GOES-17 Lat,Lon TERRA Lat,Lon Distance(km) Time Diff (sec)
1 10/26/2024 16:46:01 -0.01,-104.73 0.48,-107.07 266.84 80
2 10/28/2024 16:30:38 -0.01,-104.73 -0.40,-102.72 228.33 80
3 10/29/2024 04:50:31 0.01,-104.68 -0.61,-107.56 327.20 80
4 10/31/2024 04:29:48 0.01,-104.69 0.33,-103.21 168.19 80
5 10/31/2024 16:49:33 -0.01,-104.74 0.65,-108.02 371.69 80
6 11/02/2024 16:34:08 -0.02,-104.75 -0.22,-103.65 124.00 80
7 11/03/2024 04:54:01 0.02,-104.70 -0.75,-108.50 430.90 80
8 11/05/2024 04:33:15 -0.01,-104.70 0.11,-104.12 65.08 80
9 11/05/2024 16:53:00 0.01,-104.75 0.90,-108.93 475.31 80
10 11/07/2024 16:37:34 0.02,-104.75 -0.01,-104.56 20.77 80
